Location: Observatoire de l'Aigle
(47.0607°N, 71.3152°W)
Time: 00:19:36
(UTC-04:00)

Amateur Radio Satellites - All Passes

Search period start: 30 August 2016 23:49
Search period end: 31 August 2016 23:49
Location: Observatoire de l'Aigle, 47.0607°N, 71.3152°W

Satellite Date Start Highest point End Downlink Frequencies (MHz)
Time Altitude Azimuth
RS-15 30 Aug 23:50:10 23:59:47 32° 103° (ESE) 00:09:46 29.354- 29.394
AUBIESAT-1 30 Aug 23:56:15 23:59:51 22° 262° (W) 00:03:26 437.475
DANDE 30 Aug 23:56:26 23:59:03 54° 97° (E) 00:02:07 436.750
M-CUBED/EXP-1 PRIME 31 Aug 00:05:59 00:08:51 16° 265° (W) 00:11:42 437.505
UKube-1 31 Aug 00:07:08 00:11:29 89° 60° (ENE) 00:15:51 .
CUSAT 1 31 Aug 00:08:07 00:11:04 28° 294° (WNW) 00:14:45 437.405
JAS-2 31 Aug 00:10:22 00:16:43 37° 95° (E) 00:23:35 435.910
GONETS M04 31 Aug 00:13:34 00:21:37 41° 275° (W) 00:29:37
BUGSAT 1 31 Aug 00:14:41 00:17:54 22° 93° (E) 00:21:05 437.445
TIGRISAT 31 Aug 00:16:40 00:20:12 25° 295° (WNW) 00:23:42 435.000
AISAT 31 Aug 00:17:50 00:22:00 39° 262° (W) 00:26:14 437.250
ESTCUBE 1 31 Aug 00:25:25 00:28:49 21° 268° (W) 00:32:13 437.505/2401.250
QB50P1 31 Aug 00:35:13 00:39:28 89° 295° (WNW) 00:43:40 145.935-145.965
PHONESAT 2.4 31 Aug 00:36:11 00:37:15 11° 158° (SSE) 00:38:19 2401.200-2431.200
SWISSCUBE 31 Aug 00:43:40 00:46:20 15° 57° (ENE) 00:49:00 437.505
POPSAT HIP 1 31 Aug 00:45:37 00:49:51 71° 286° (WNW) 00:54:01 437.405
UNISAT 6 31 Aug 00:47:39 00:49:44 14° 301° (WNW) 00:51:51 437.425
Cosmos 2499 31 Aug 00:49:16 00:54:43 25° 278° (W) 01:00:13 435.465 / 435.565
50 SAT 31 Aug 00:54:22 00:56:09 13° 269° (W) 00:57:57 437.505
SPROUT 31 Aug 00:58:41 01:02:27 29° 264° (W) 01:06:15 437.525
BEESAT 31 Aug 00:59:39 01:02:55 19° 60° (ENE) 01:06:12 436.000
CUBEBUG 1 31 Aug 00:59:41 01:02:05 14° 271° (W) 01:04:30 437.445
TISAT 1 31 Aug 01:03:54 01:08:09 79° 74° (ENE) 01:12:25 437.305
VELOX 1 31 Aug 01:06:55 01:09:25 15° 271° (W) 01:11:56 145.980
DUCHIFAT 1 31 Aug 01:09:12 01:13:12 44° 290° (WNW) 01:17:10 145.980
DX 1 31 Aug 01:11:19 01:14:19 18° 269° (W) 01:17:19 434.975-435.025
QB50P2 31 Aug 01:17:20 01:21:06 32° 293° (WNW) 01:24:50 145.880/145.840
SO-50 31 Aug 01:18:24 01:21:58 20° 328° (NNW) 01:25:31 436.795
POLYITAN 1 31 Aug 01:19:51 01:23:36 31° 292° (WNW) 01:27:18 437.675
NANOSAT C BR1 31 Aug 01:25:06 01:28:46 29° 293° (WNW) 01:32:24 145.865
Oscar 19 31 Aug 01:28:20 01:32:45 27° 94° (E) 01:37:07 437.125/150
Gurwin Techsat 1B 31 Aug 01:29:29 01:32:05 14° 87° (E) 01:34:39 435.225
ITUPSAT 1 31 Aug 01:47:55 01:52:28 47° 69° (ENE) 01:57:02 437.325
BUGSAT 1 31 Aug 01:49:35 01:53:26 37° 291° (WNW) 01:57:11 437.445
JAS-2 31 Aug 01:55:18 02:01:53 53° 292° (WNW) 02:09:08 435.910
RS-15 31 Aug 01:59:14 02:10:56 84° 308° (NW) 02:23:17 29.354- 29.394
PHONESAT 2.4 31 Aug 02:10:33 02:12:58 22° 174° (S) 02:15:22 2401.200-2431.200
QB50P1 31 Aug 02:13:20 02:14:34 11° 303° (WNW) 02:15:47 145.935-145.965
MOZHAYETS 4 31 Aug 02:18:35 02:21:26 17° 60° (ENE) 02:24:18
SWISSCUBE 31 Aug 02:18:45 02:23:30 81° 256° (WSW) 02:28:17 437.505
BEESAT 31 Aug 02:35:32 02:40:15 63° 258° (WSW) 02:45:00 436.000
TISAT 1 31 Aug 02:43:04 02:44:21 11° 272° (W) 02:45:37 437.305
ITAMSAT 1 31 Aug 02:50:43 02:54:42 22° 92° (E) 02:58:40 435.822/435.867
Oscar 19 31 Aug 03:07:18 03:12:16 45° 292° (WNW) 03:17:10 437.125/150
Gurwin Techsat 1B 31 Aug 03:07:24 03:12:46 89° 286° (WNW) 03:18:05 435.225
KKS-1 31 Aug 03:21:07 03:25:26 49° 70° (ENE) 03:29:47 437.445
ITUPSAT 1 31 Aug 03:26:50 03:30:32 22° 267° (W) 03:34:16 437.325
AO-85 31 Aug 03:36:36 03:39:45 16° 110° (ESE) 03:42:48 145.980
JAS-2 31 Aug 03:42:57 03:45:38 13° 311° (NW) 03:48:26 435.910
AO-7 31 Aug 03:46:26 03:53:57 36° 96° (E) 04:01:25 29.400- 29.500
PHONESAT 2.4 31 Aug 03:46:32 03:48:47 19° 191° (S) 03:51:02 2401.200-2431.200
STARS 31 Aug 03:46:54 03:51:07 45° 70° (ENE) 03:55:23 437.465
CUBESAT XI-V 31 Aug 03:48:14 03:51:22 18° 61° (ENE) 03:54:33 437.345
Cosmos 2491 31 Aug 03:52:50 04:00:45 35° 66° (ENE) 04:08:36 435.465 / 435.565
MOZHAYETS 4 31 Aug 03:53:35 03:58:07 66° 259° (W) 04:02:40
RS-15 31 Aug 04:14:24 04:25:25 40° 338° (NNW) 04:36:51 29.354- 29.394
ITAMSAT 1 31 Aug 04:29:27 04:34:31 55° 290° (WNW) 04:39:33 435.822/435.867
HORYU 2 31 Aug 04:34:00 04:34:43 10° 87° (E) 04:35:26 437.375
SO-50 31 Aug 04:45:11 04:47:01 12° 18° (NNE) 04:48:49 436.795
Gurwin Techsat 1B 31 Aug 04:48:54 04:51:58 16° 304° (NW) 04:55:02 435.225
KKS-1 31 Aug 04:59:00 05:02:16 20° 268° (W) 05:05:33 437.445
YUBILEINY 31 Aug 05:09:44 05:17:25 35° 83° (E) 05:25:05 435.215
AO-85 31 Aug 05:14:24 05:19:40 87° 304° (NW) 05:24:38 145.980
CUBESAT XI-V 31 Aug 05:23:45 05:28:19 60° 259° (W) 05:32:55 437.345
STARS 31 Aug 05:24:22 05:27:42 21° 267° (W) 05:31:04 437.465
AO-7 31 Aug 05:38:59 05:47:07 60° 297° (WNW) 05:55:11 29.400- 29.500
GOMX 1 31 Aug 05:41:06 05:43:40 13° 84° (E) 05:46:10 467.674
NOAA 15 31 Aug 05:47:03 05:50:32 17° 90° (E) 05:54:00 137.62
Cubesat XI-IV 31 Aug 05:48:13 05:50:54 14° 87° (E) 05:53:35 437.490
Cosmos 2491 31 Aug 05:49:29 05:58:09 63° 268° (W) 06:06:48 435.465 / 435.565
CUTE-I 31 Aug 05:58:13 06:01:42 17° 90° (E) 06:05:10 437.470
LilacSat-2 31 Aug 06:06:09 06:08:29 16° 91° (E) 06:10:48 437.200
HORYU 2 31 Aug 06:07:28 06:11:55 88° 291° (WNW) 06:16:20 437.375
BRITE-PL 31 Aug 06:22:22 06:28:05 64° 101° (E) 06:33:35 437.365/2234.400
SO-50 31 Aug 06:24:36 06:28:53 35° 41° (NE) 06:33:03 436.795
RS-15 31 Aug 06:31:12 06:42:08 35° 12° (NNE) 06:53:12 29.354- 29.394
STRAND 1 31 Aug 06:37:56 06:42:50 51° 69° (ENE) 06:47:47 437.568
Cosmos 2504 31 Aug 06:49:17 06:57:11 51° 90° (E) 07:04:35 435.465 / 435.565
AO-85 31 Aug 06:56:54 07:00:47 21° 326° (NW) 07:04:28 145.980
DOVE 4 31 Aug 07:04:41 07:09:14 33° 94° (E) 07:13:31 437.250
YUBILEINY 31 Aug 07:05:03 07:13:45 60° 285° (WNW) 07:22:30 435.215
NOAA 18 31 Aug 07:09:30 07:14:55 59° 102° (ESE) 07:20:18 137.9125
GOMX 1 31 Aug 07:17:06 07:22:34 90° 103° (ESE) 07:27:41 467.674
CINEMA 3 31 Aug 07:19:03 07:20:52 12° 86° (E) 07:22:40 145.822/145.860
NOAA 15 31 Aug 07:25:33 07:30:52 72° 288° (WNW) 07:36:09 137.62
Cubesat XI-IV 31 Aug 07:26:21 07:31:42 87° 288° (WNW) 07:37:02 437.490
ISS 31 Aug 07:28:45 07:31:31 25° 141° (SE) 07:34:18 145.825
HO-68 31 Aug 07:32:00 07:37:15 21° 90° (E) 07:42:27 435.675
AO-7 31 Aug 07:33:16 07:38:15 18° 320° (NW) 07:43:14 29.400- 29.500
CUTE-I 31 Aug 07:36:59 07:42:18 72° 288° (WNW) 07:47:35 437.470
LilacSat-2 31 Aug 07:39:25 07:43:02 43° 288° (WNW) 07:46:36 437.200
HORYU 2 31 Aug 07:46:05 07:47:47 12° 303° (WNW) 07:49:28 437.375
Cosmos 2491 31 Aug 07:49:32 07:53:04 13° 290° (WNW) 07:56:35 435.465 / 435.565
BRITE-PL 31 Aug 08:01:35 08:06:02 24° 299° (WNW) 08:10:25 437.365/2234.400
SEEDS 31 Aug 08:03:23 08:06:23 19° 92° (E) 08:09:23 437.485
SO-50 31 Aug 08:05:08 08:09:25 38° 242° (WSW) 08:13:35 436.795
PRISM 31 Aug 08:10:07 08:14:02 45° 70° (ENE) 08:18:01 437.425
BEESAT 2 31 Aug 08:15:48 08:16:12 10° 108° (ESE) 08:16:36 435.950
STRAND 1 31 Aug 08:18:17 08:22:18 23° 267° (W) 08:26:21 437.568
BEESAT 3 31 Aug 08:22:51 08:25:58 23° 115° (ESE) 08:29:08 437.485
AAUSAT CUBESAT 2 31 Aug 08:23:20 08:26:06 17° 91° (E) 08:28:51 437.432
CANX-2 31 Aug 08:32:10 08:36:22 59° 101° (E) 08:40:34 2200.000
COMPASS 1 31 Aug 08:34:44 08:38:21 27° 95° (E) 08:41:57 437.405
UWE-3 31 Aug 08:36:03 08:38:19 14° 89° (E) 08:40:35 435.000/436.395/437.385
UNISAT 6 31 Aug 08:37:02 08:39:02 13° 58° (ENE) 08:41:02 437.425
CUTE 1.7 + AOD 2 31 Aug 08:37:28 08:41:40 58° 100° (E) 08:45:52 437.475
DOVE 4 31 Aug 08:42:24 08:46:53 33° 294° (WNW) 08:51:08 437.250
ZACube-1 31 Aug 08:42:55 08:43:43 10° 87° (E) 08:44:31 437.345
Cosmos 2504 31 Aug 08:43:13 08:50:45 38° 290° (WNW) 08:57:52 435.465 / 435.565
RS-15 31 Aug 08:45:20 08:57:38 64° 43° (NE) 09:09:48 29.354- 29.394
CUBEBUG 2 31 Aug 08:45:50 08:49:25 26° 94° (E) 08:52:55 437.445
DANDE 31 Aug 08:46:36 08:49:07 13° 62° (ENE) 08:51:51 436.750
NOAA 18 31 Aug 08:50:54 08:55:12 24° 301° (WNW) 08:59:28 137.9125
CUSAT 1 31 Aug 08:52:44 08:58:44 36° 70° (ENE) 09:05:41 437.405
CINEMA 3 31 Aug 08:54:08 08:58:39 74° 285° (WNW) 09:02:56 145.822/145.860
GOMX 1 31 Aug 08:56:37 08:59:49 16° 304° (WNW) 09:02:56 467.674
AIST 1 31 Aug 08:58:01 09:02:21 69° 96° (E) 09:06:45
ISS 31 Aug 09:04:31 09:07:48 65° 340° (NNW) 09:11:05 145.825
NOAA 15 31 Aug 09:07:25 09:09:44 13° 307° (NW) 09:12:03 137.62
Cubesat XI-IV 31 Aug 09:08:01 09:11:02 15° 305° (NW) 09:14:03 437.490
YUBILEINY 31 Aug 09:08:09 09:12:49 15° 310° (NW) 09:17:31 435.215
ANTELSAT 31 Aug 09:11:46 09:15:30 26° 65° (ENE) 09:19:11 437.575/2403.000
HO-68 31 Aug 09:18:35 09:25:47 82° 289° (WNW) 09:32:56 435.675
CUTE-I 31 Aug 09:19:11 09:21:26 13° 307° (NW) 09:23:41 437.470
DELFI C3 31 Aug 09:29:01 09:31:13 14° 90° (E) 09:33:24 145.870
GONETS M04 31 Aug 09:34:15 09:34:50 10° 67° (ENE) 09:35:25
SEEDS 31 Aug 09:38:17 09:42:19 45° 289° (WNW) 09:46:21 437.485
Oscar 11 31 Aug 09:39:42 09:43:50 43° 98° (E) 09:47:57 145.826/435.025
TIGRISAT 31 Aug 09:40:49 09:45:09 45° 70° (ENE) 09:49:25 435.000
PRISM 31 Aug 09:46:46 09:49:36 18° 268° (W) 09:52:28 437.425
BEESAT 2 31 Aug 09:49:23 09:53:20 90° 171° (S) 09:57:21 435.950
FUNcube-1 31 Aug 09:52:39 09:56:44 54° 100° (E) 10:00:47 145.935
PCSat 31 Aug 09:54:11 09:56:42 13° 103° (ESE) 09:59:13 145.827
QB50P1 31 Aug 09:57:24 09:59:15 13° 58° (ENE) 10:01:05 145.935-145.965
AAUSAT CUBESAT 2 31 Aug 09:57:49 10:01:51 49° 288° (WNW) 10:05:53 437.432
BEESAT 3 31 Aug 09:59:42 10:03:26 41° 314° (NW) 10:07:13 437.485
POPSAT HIP 1 31 Aug 10:07:03 10:09:33 15° 61° (ENE) 10:12:03 437.405
CANX-2 31 Aug 10:09:09 10:11:48 16° 298° (WNW) 10:14:27 2200.000
COMPASS 1 31 Aug 10:10:13 10:13:53 30° 292° (WNW) 10:17:35 437.405
UNISAT 6 31 Aug 10:10:33 10:15:07 87° 256° (WSW) 10:19:38 437.425
UWE-3 31 Aug 10:11:06 10:15:13 57° 287° (WNW) 10:19:16 435.000/436.395/437.385
CUTE 1.7 + AOD 2 31 Aug 10:14:25 10:17:05 16° 298° (WNW) 10:19:45 437.475
ZACube-1 31 Aug 10:16:26 10:20:35 78° 286° (WNW) 10:24:43 437.345
CUBEBUG 2 31 Aug 10:22:20 10:26:05 31° 292° (WNW) 10:29:44 437.445
AO-85 31 Aug 10:24:56 10:25:45 10° 15° (NNE) 10:26:32 145.980
DANDE 31 Aug 10:26:54 10:32:28 68° 77° (ENE) 10:39:42 436.750
HUMSAT D 31 Aug 10:27:42 10:31:19 29° 96° (E) 10:34:56 437.325/437.525
JAS-2 31 Aug 10:28:31 10:32:10 19° 55° (NE) 10:36:04 435.910
DUCHIFAT 1 31 Aug 10:28:58 10:32:15 22° 64° (ENE) 10:35:31 145.980
CUSAT 1 31 Aug 10:34:27 10:40:55 55° 265° (W) 10:48:29 437.405
CINEMA 3 31 Aug 10:34:40 10:34:54 10° 305° (NW) 10:35:07 145.822/145.860
QB50P2 31 Aug 10:37:00 10:40:45 30° 67° (ENE) 10:44:30 145.880/145.840
AIST 1 31 Aug 10:38:11 10:40:29 14° 295° (WNW) 10:42:48
POLYITAN 1 31 Aug 10:39:29 10:43:15 31° 67° (ENE) 10:47:00 437.675
ISS 31 Aug 10:41:32 10:44:37 35° 359° (N) 10:47:41 145.825
NANOSAT C BR1 31 Aug 10:44:11 10:47:59 32° 67° (ENE) 10:51:46 145.865
ANTELSAT 31 Aug 10:47:49 10:52:04 38° 262° (W) 10:56:16 437.575/2403.000
AIST 2 31 Aug 10:58:11 11:01:25 23° 114° (ESE) 11:04:40 435.215
RS-15 31 Aug 10:58:21 11:09:59 51° 248° (WSW) 11:21:26 29.354- 29.394
DELFI C3 31 Aug 11:02:28 11:06:24 55° 287° (WNW) 11:10:20 145.870
BUGSAT 1 31 Aug 11:07:06 11:10:33 24° 65° (ENE) 11:13:59 437.445
HO-68 31 Aug 11:07:33 11:12:31 21° 310° (NW) 11:17:27 435.675
Oscar 11 31 Aug 11:16:25 11:19:43 22° 296° (WNW) 11:23:00 145.826/435.025
TIGRISAT 31 Aug 11:18:34 11:22:02 21° 267° (W) 11:25:29 435.000
GONETS M04 31 Aug 11:21:01 11:29:24 53° 89° (E) 11:37:53
BEESAT 2 31 Aug 11:29:08 11:31:45 17° 327° (NNW) 11:34:23 435.950
FUNcube-1 31 Aug 11:29:58 11:32:35 16° 298° (WNW) 11:35:12 145.935
QB50P1 31 Aug 11:30:08 11:34:24 82° 256° (WSW) 11:38:42 145.935-145.965
AUBIESAT-1 31 Aug 11:32:11 11:35:03 19° 97° (E) 11:37:45 437.475
PCSat 31 Aug 11:33:49 11:39:14 83° 122° (ESE) 11:44:42 145.827
Cosmos 2499 31 Aug 11:34:51 11:42:25 49° 90° (E) 11:49:30 435.465 / 435.565
POPSAT HIP 1 31 Aug 11:40:37 11:44:51 65° 259° (WSW) 11:49:07 437.405
M-CUBED/EXP-1 PRIME 31 Aug 11:41:02 11:44:37 29° 100° (E) 11:47:55 437.505
BEESAT 3 31 Aug 11:41:21 11:42:09 10° 335° (NNW) 11:42:57 437.485
UNISAT 6 31 Aug 11:52:05 11:52:28 10° 273° (W) 11:52:52 437.425
UKube-1 31 Aug 11:53:13 11:54:52 12° 88° (E) 11:56:31 .
HUMSAT D 31 Aug 12:03:25 12:06:53 27° 293° (WNW) 12:10:22 437.325/437.525
DUCHIFAT 1 31 Aug 12:03:40 12:07:42 41° 262° (W) 12:11:44 145.980
AO-85 31 Aug 12:03:49 12:07:43 29° 40° (NE) 12:11:21 145.980
AISAT 31 Aug 12:04:48 12:08:48 31° 96° (E) 12:12:44 437.250
DANDE 31 Aug 12:10:32 12:15:02 23° 270° (W) 12:20:22 436.750
JAS-2 31 Aug 12:11:14 12:16:31 77° 257° (WSW) 12:22:20 435.910
QB50P2 31 Aug 12:12:48 12:16:32 29° 265° (W) 12:20:17 145.880/145.840
ESTCUBE 1 31 Aug 12:13:15 12:17:48 66° 101° (ESE) 12:22:19 437.505/2401.250
POLYITAN 1 31 Aug 12:15:20 12:19:02 28° 265° (W) 12:22:45 437.675
50 SAT 31 Aug 12:17:23 12:20:50 37° 98° (E) 12:24:16 437.505
ISS 31 Aug 12:18:13 12:21:28 56° 19° (NNE) 12:24:43 145.825
NANOSAT C BR1 31 Aug 12:20:06 12:23:44 27° 265° (W) 12:27:23 145.865
CUSAT 1 31 Aug 12:20:41 12:21:53 10° 281° (WNW) 12:23:08 437.405
AIST 2 31 Aug 12:35:40 12:39:38 46° 313° (NW) 12:43:40 435.215
SPROUT 31 Aug 12:40:59 12:44:58 37° 97° (E) 12:48:55 437.525
BUGSAT 1 31 Aug 12:41:48 12:45:44 37° 262° (W) 12:49:42 437.445
CUBEBUG 1 31 Aug 12:42:36 12:47:05 88° 111° (ESE) 12:51:29 437.445
Oscar 19 31 Aug 12:47:52 12:52:53 53° 70° (ENE) 12:57:57 437.125/150
VELOX 1 31 Aug 12:51:24 12:55:54 86° 104° (ESE) 13:00:21 145.980
Gurwin Techsat 1B 31 Aug 12:52:42 12:57:16 30° 63° (ENE) 13:01:52 435.225
DX 1 31 Aug 12:54:35 12:58:59 64° 102° (ESE) 13:03:19 434.975-435.025
AO-7 31 Aug 12:59:58 13:05:17 19° 42° (NE) 13:10:36 29.400- 29.500
AUBIESAT-1 31 Aug 13:05:57 13:09:44 39° 297° (WNW) 13:13:14 437.475
M-CUBED/EXP-1 PRIME 31 Aug 13:15:34 13:19:04 27° 301° (WNW) 13:22:20 437.505
RS-15 31 Aug 13:18:03 13:19:07 10° 272° (W) 13:20:12 29.354- 29.394
GONETS M04 31 Aug 13:18:22 13:26:29 40° 292° (WNW) 13:34:44
PCSat 31 Aug 13:19:00 13:23:18 23° 323° (NW) 13:27:37 145.827
UKube-1 31 Aug 13:27:06 13:31:27 76° 285° (WNW) 13:35:46 .
Cosmos 2499 31 Aug 13:28:30 13:35:43 37° 290° (WNW) 13:42:31 435.465 / 435.565
O/OREOS (USA 219) 31 Aug 13:33:50 13:38:20 83° 115° (ESE) 13:42:54 437.305
AISAT 31 Aug 13:41:18 13:45:13 31° 294° (WNW) 13:49:07 437.250
AO-85 31 Aug 13:44:15 13:48:16 39° 242° (WSW) 13:52:00 145.980
ESTCUBE 1 31 Aug 13:51:15 13:54:07 17° 300° (WNW) 13:56:58 437.505/2401.250
50 SAT 31 Aug 13:51:38 13:54:09 18° 295° (WNW) 13:56:41 437.505
ISS 31 Aug 13:54:51 13:57:50 32° 217° (SW) 14:00:47 145.825
JAS-2 31 Aug 14:02:02 14:02:53 10° 278° (W) 14:03:44 435.910
ITAMSAT 1 31 Aug 14:11:19 14:16:14 46° 68° (ENE) 14:21:10 435.822/435.867
SWISSCUBE 31 Aug 14:16:33 14:20:06 20° 92° (E) 14:23:38 437.505
SPROUT 31 Aug 14:17:17 14:20:45 24° 295° (WNW) 14:24:12 437.525
AIST 2 31 Aug 14:17:34 14:19:09 12° 335° (NNW) 14:20:45 435.215
TISAT 1 31 Aug 14:20:18 14:24:32 88° 277° (W) 14:28:43 437.305
CUBEBUG 1 31 Aug 14:20:47 14:22:42 13° 302° (WNW) 14:24:35 437.445
Oscar 19 31 Aug 14:28:27 14:32:31 23° 268° (W) 14:36:37 437.125/150
VELOX 1 31 Aug 14:29:40 14:31:43 13° 303° (WNW) 14:33:44 145.980
DX 1 31 Aug 14:31:57 14:34:41 16° 300° (WNW) 14:37:25 434.975-435.025
Gurwin Techsat 1B 31 Aug 14:32:01 14:37:04 43° 262° (W) 14:42:08 435.225
BEESAT 31 Aug 14:32:53 14:36:52 26° 94° (E) 14:40:51 436.000
AO-7 31 Aug 14:48:21 14:56:33 64° 64° (ENE) 15:04:46 29.400- 29.500
BEESAT 3 31 Aug 15:00:50 15:01:27 10° 24° (NNE) 15:02:05 437.485
UKube-1 31 Aug 15:06:07 15:06:43 10° 305° (NW) 15:07:20 .
YUBILEINY 31 Aug 15:15:31 15:21:48 21° 56° (ENE) 15:28:01 435.215
O/OREOS (USA 219) 31 Aug 15:15:39 15:18:24 16° 314° (NW) 15:21:11 437.305
ITUPSAT 1 31 Aug 15:22:42 15:27:30 74° 105° (ESE) 15:32:16 437.325
HORYU 2 31 Aug 15:33:46 15:36:30 16° 60° (ENE) 15:39:15 437.375
MOZHAYETS 4 31 Aug 15:45:56 15:49:36 23° 93° (E) 15:53:15
ITAMSAT 1 31 Aug 15:51:34 15:55:54 27° 266° (W) 16:00:15 435.822/435.867
SWISSCUBE 31 Aug 15:53:33 15:58:12 52° 290° (WNW) 16:02:49 437.505
TISAT 1 31 Aug 15:58:18 15:59:30 11° 303° (WNW) 16:00:40 437.305
BRITE-PL 31 Aug 16:00:05 16:03:08 16° 56° (NE) 16:06:17 437.365/2234.400
BEESAT 31 Aug 16:10:20 16:14:47 40° 292° (WNW) 16:19:14 436.000
BEESAT 2 31 Aug 16:27:21 16:30:33 22° 38° (NE) 16:33:45 435.950
BEESAT 3 31 Aug 16:36:25 16:40:11 40° 46° (NE) 16:43:57 437.485
Cosmos 2504 31 Aug 16:38:44 16:43:52 20° 60° (ENE) 16:48:55 435.465 / 435.565
AO-7 31 Aug 16:42:27 16:49:48 34° 264° (W) 16:57:12 29.400- 29.500
KKS-1 31 Aug 16:45:14 16:49:42 64° 102° (ESE) 16:54:06 437.445
GOMX 1 31 Aug 16:51:05 16:55:00 21° 60° (ENE) 16:59:03 467.674
LilacSat-2 31 Aug 16:51:46 16:53:42 14° 62° (ENE) 16:55:38 437.200
PCSat 31 Aug 16:54:07 16:55:03 10° 16° (NNE) 16:55:58 145.827
Cosmos 2491 31 Aug 16:58:40 17:06:11 34° 83° (E) 17:13:45 435.465 / 435.565
NOAA 18 31 Aug 16:59:49 17:04:15 25° 60° (ENE) 17:08:41 137.9125
ITUPSAT 1 31 Aug 17:01:50 17:04:46 16° 302° (WNW) 17:07:43 437.325
HORYU 2 31 Aug 17:08:09 17:12:35 66° 258° (WSW) 17:17:02 437.375
STARS 31 Aug 17:09:15 17:13:36 57° 101° (E) 17:17:54 437.465
NOAA 15 31 Aug 17:09:35 17:14:23 38° 65° (ENE) 17:19:14 137.62
YUBILEINY 31 Aug 17:11:19 17:20:09 82° 80° (E) 17:28:53 435.215
Cubesat XI-IV 31 Aug 17:12:21 17:17:02 32° 64° (ENE) 17:21:43 437.490
CUBESAT XI-V 31 Aug 17:17:24 17:21:27 27° 94° (E) 17:25:28 437.345
CUTE-I 31 Aug 17:22:31 17:27:24 39° 66° (ENE) 17:32:18 437.470
MOZHAYETS 4 31 Aug 17:22:37 17:26:56 42° 291° (WNW) 17:31:16
BRITE-PL 31 Aug 17:35:40 17:40:44 89° 77° (ENE) 17:46:14 437.365/2234.400
AIST 2 31 Aug 17:38:49 17:40:10 11° 24° (NNE) 17:41:31 435.215
HO-68 31 Aug 18:04:26 18:09:58 25° 53° (NE) 18:15:30 435.675
BEESAT 2 31 Aug 18:04:44 18:08:41 56° 238° (WSW) 18:12:36 435.950
DOVE 4 31 Aug 18:11:57 18:17:00 48° 69° (ENE) 18:22:06 437.250
BEESAT 3 31 Aug 18:14:26 18:17:42 25° 244° (WSW) 18:20:56 437.485
CINEMA 3 31 Aug 18:22:23 18:25:58 20° 62° (ENE) 18:29:30 145.822/145.860
KKS-1 31 Aug 18:22:58 18:25:47 17° 300° (WNW) 18:28:36 437.445
LilacSat-2 31 Aug 18:23:47 18:27:33 59° 259° (W) 18:31:21 437.200
GOMX 1 31 Aug 18:27:19 18:32:32 67° 259° (W) 18:38:01 467.674
Cosmos 2504 31 Aug 18:31:02 18:38:18 86° 262° (W) 18:45:30 435.465 / 435.565
PCSat 31 Aug 18:35:48 18:40:25 27° 40° (NE) 18:45:01 145.827
NOAA 18 31 Aug 18:39:07 18:44:33 57° 258° (WSW) 18:50:01 137.9125
STARS 31 Aug 18:46:36 18:49:33 18° 299° (WNW) 18:52:30 437.465
STRAND 1 31 Aug 18:46:57 18:49:23 13° 88° (E) 18:51:48 437.568
NOAA 15 31 Aug 18:49:28 18:54:12 33° 264° (W) 18:58:59 137.62
Cubesat XI-IV 31 Aug 18:51:59 18:56:59 41° 262° (W) 19:02:02 437.490
Cosmos 2491 31 Aug 18:53:56 19:02:32 61° 285° (WNW) 19:11:15 435.465 / 435.565
CUBESAT XI-V 31 Aug 18:54:34 18:58:54 38° 292° (WNW) 19:03:15 437.345
SEEDS 31 Aug 18:58:12 19:01:13 20° 64° (ENE) 19:04:15 437.485
AIST 1 31 Aug 19:02:18 19:05:54 24° 70° (ENE) 19:09:29
CUTE-I 31 Aug 19:02:44 19:07:31 33° 264° (W) 19:12:18 437.470
YUBILEINY 31 Aug 19:09:24 19:15:54 24° 282° (WNW) 19:22:23 435.215
AIST 2 31 Aug 19:15:45 19:19:45 41° 46° (NE) 19:23:44 435.215
AAUSAT CUBESAT 2 31 Aug 19:16:45 19:19:29 17° 63° (ENE) 19:22:14 437.432
BRITE-PL 31 Aug 19:17:33 19:20:04 14° 276° (W) 19:22:40 437.365/2234.400
CANX-2 31 Aug 19:27:34 19:31:42 60° 73° (ENE) 19:35:51 2200.000
COMPASS 1 31 Aug 19:28:24 19:31:54 27° 67° (ENE) 19:35:26 437.405
CUTE 1.7 + AOD 2 31 Aug 19:32:46 19:36:53 59° 73° (ENE) 19:41:03 437.475
UWE-3 31 Aug 19:35:33 19:38:45 20° 63° (ENE) 19:41:54 435.000/436.395/437.385
ZACube-1 31 Aug 19:40:51 19:43:15 15° 61° (ENE) 19:45:38 437.345
CUBEBUG 2 31 Aug 19:46:17 19:50:27 35° 69° (ENE) 19:54:32 437.445
HO-68 31 Aug 19:49:43 19:56:56 83° 255° (WSW) 20:04:11 435.675
DOVE 4 31 Aug 19:50:29 19:54:53 27° 268° (W) 19:59:20 437.250
CINEMA 3 31 Aug 19:57:43 20:02:41 61° 259° (W) 20:07:33 145.822/145.860
DELFI C3 31 Aug 20:18:25 20:20:22 13° 61° (ENE) 20:22:20 145.870
PCSat 31 Aug 20:18:53 20:24:16 66° 241° (WSW) 20:29:37 145.827
STRAND 1 31 Aug 20:24:06 20:29:14 87° 290° (WNW) 20:34:22 437.568
Cosmos 2504 31 Aug 20:26:28 20:30:29 16° 284° (WNW) 20:34:29 435.465 / 435.565
SEEDS 31 Aug 20:32:39 20:36:38 44° 262° (W) 20:40:39 437.485
Oscar 11 31 Aug 20:37:06 20:41:14 48° 71° (ENE) 20:45:24 145.826/435.025
AIST 1 31 Aug 20:39:34 20:43:37 36° 269° (W) 20:47:36
FUNcube-1 31 Aug 20:50:36 20:54:56 62° 74° (ENE) 20:59:11 145.935
AAUSAT CUBESAT 2 31 Aug 20:50:37 20:54:36 50° 260° (W) 20:58:39 437.432
AIST 2 31 Aug 20:54:33 20:58:04 26° 245° (WSW) 21:01:33 435.215
Cosmos 2491 31 Aug 20:56:59 21:01:38 15° 310° (NW) 21:06:19 435.465 / 435.565
M-CUBED/EXP-1 PRIME 31 Aug 20:58:02 20:59:41 12° 50° (NE) 21:01:19 437.505
COMPASS 1 31 Aug 21:03:46 21:07:24 30° 264° (W) 21:11:03 437.405
CANX-2 31 Aug 21:05:41 21:07:58 14° 271° (W) 21:10:15 2200.000
UWE-3 31 Aug 21:10:29 21:14:54 51° 260° (W) 21:19:12 435.000/436.395/437.385
CUTE 1.7 + AOD 2 31 Aug 21:10:50 21:13:08 14° 271° (W) 21:15:27 437.475
ZACube-1 31 Aug 21:14:39 21:19:03 70° 258° (WSW) 21:23:22 437.345
HUMSAT D 31 Aug 21:21:47 21:25:25 31° 68° (ENE) 21:29:03 437.325/437.525
Cosmos 2499 31 Aug 21:22:36 21:27:29 19° 60° (ENE) 21:32:21 435.465 / 435.565
CUBEBUG 2 31 Aug 21:23:07 21:27:06 28° 265° (W) 21:31:01 437.445
PRISM 31 Aug 21:23:34 21:27:39 48° 100° (E) 21:31:42 437.425
GONETS M04 31 Aug 21:27:21 21:35:05 32° 64° (ENE) 21:42:44
HO-68 31 Aug 21:41:21 21:45:43 17° 273° (W) 21:50:06 435.675
ESTCUBE 1 31 Aug 21:42:09 21:43:50 12° 57° (ENE) 21:45:33 437.505/2401.250
DELFI C3 31 Aug 21:50:49 21:54:43 64° 259° (WSW) 21:58:40 145.870
UNISAT 6 31 Aug 22:00:35 22:03:01 15° 90° (E) 22:05:27 437.425
O/OREOS (USA 219) 31 Aug 22:01:46 22:06:00 35° 56° (NE) 22:10:12 437.305
CUSAT 1 31 Aug 22:02:37 22:04:15 13° 80° (E) 22:06:05 437.405
STRAND 1 31 Aug 22:04:59 22:07:41 15° 304° (NW) 22:10:23 437.568
CUBEBUG 1 31 Aug 22:07:33 22:09:50 14° 58° (ENE) 22:12:06 437.445
Oscar 11 31 Aug 22:14:39 22:17:39 18° 269° (W) 22:20:39 145.826/435.025
VELOX 1 31 Aug 22:17:22 22:19:51 15° 59° (ENE) 22:22:19 145.980
AUBIESAT-1 31 Aug 22:19:14 22:23:40 46° 65° (ENE) 22:28:01 437.475
DX 1 31 Aug 22:20:25 22:21:36 11° 56° (NE) 22:22:47 434.975-435.025
SO-50 31 Aug 22:21:37 22:25:58 33° 117° (ESE) 22:30:17 436.795
M-CUBED/EXP-1 PRIME 31 Aug 22:28:43 22:33:24 68° 67° (ENE) 22:38:01 437.505
FUNcube-1 31 Aug 22:29:08 22:31:34 15° 270° (W) 22:33:59 145.935
ANTELSAT 31 Aug 22:36:17 22:40:11 33° 97° (E) 22:44:02 437.575/2403.000
UKube-1 31 Aug 22:50:12 22:52:56 17° 60° (ENE) 22:55:40 .
HUMSAT D 31 Aug 22:57:34 23:01:03 26° 265° (W) 23:04:32 437.325/437.525
50 SAT 31 Aug 22:57:35 23:00:37 27° 68° (ENE) 23:03:42 437.505
PRISM 31 Aug 22:59:40 23:02:38 19° 298° (WNW) 23:05:34 437.425
AISAT 31 Aug 23:04:45 23:08:55 40° 69° (ENE) 23:13:08 437.250
TIGRISAT 31 Aug 23:05:39 23:09:54 64° 101° (E) 23:14:07 435.000
QB50P1 31 Aug 23:13:31 23:15:30 13° 89° (E) 23:17:28 145.935-145.965
Cosmos 2499 31 Aug 23:14:33 23:21:39 88° 258° (WSW) 23:28:51 435.465 / 435.565
ESTCUBE 1 31 Aug 23:15:26 23:19:56 86° 74° (ENE) 23:24:28 437.505/2401.250
RS-15 31 Aug 23:15:54 23:24:21 24° 99° (E) 23:33:03 29.354- 29.394
JAS-2 31 Aug 23:17:01 23:21:06 16° 86° (E) 23:25:20 435.910
POPSAT HIP 1 31 Aug 23:23:25 23:26:06 16° 91° (E) 23:28:44 437.405
GONETS M04 31 Aug 23:23:52 23:32:39 69° 267° (W) 23:41:23
UNISAT 6 31 Aug 23:35:56 23:40:09 58° 288° (WNW) 23:44:20 437.425
SPROUT 31 Aug 23:37:07 23:41:11 41° 70° (ENE) 23:45:15 437.525
O/OREOS (USA 219) 31 Aug 23:41:18 23:45:20 30° 255° (WSW) 23:49:21 437.305
TISAT 1 31 Aug 23:41:44 23:43:36 13° 58° (ENE) 23:45:28 437.305
